Torna al catalogo

METEOR 2-5 DEB

AttivoPO
NORAD 38273·DEBRIS·🇷🇺 Russia

Lanciato Oct 31, 1979 da Plesetsk Cosmodrome

Loading…

Prossimi Passaggi (prossime 24 ore)

TLE

AggiornatoSource: Space-Track

Epoca: Sep 11, 2026, 02:06 UTC

1 38273U 79095BT  26254.08758976  .00003717  00000-0  10734-2 0  9997
2 38273  81.2204  31.0919 0007096 263.4346  96.6036 14.44461554688353

Traccia METEOR 2-5 DEB in tempo reale con AllMySat

Download on the App Store